This is the latest recevied weather packets stored in our database for station/object DL1EEM-L4. If no packets are shown the sender has not sent any weather packets the latest 10 day(s).
| Time | Temp. | Humidity | Pressure | Rain* | Wind** | Luminosity | Snow |
|---|---|---|---|---|---|---|---|
| 1777652416 | 26.67° C | 20% | 1021.1 hPa | - | - | - | - |
| 1777651516 | 27.22° C | 22% | 1021.1 hPa | - | - | - | - |
| 1777650616 | 27.78° C | 22% | 1021.2 hPa | - | - | - | - |
| 1777649716 | 27.78° C | 20% | 1021.4 hPa | - | - | - | - |
| 1777648815 | 27.78° C | 20% | 1021.6 hPa | - | - | - | - |
| 1777647915 | 28.33° C | 20% | 1021.8 hPa | - | - | - | - |
| 1777647015 | 27.78° C | 19% | 1022 hPa | - | - | - | - |
| 1777646115 | 28.33° C | 19% | 1022.1 hPa | - | - | - | - |
| 1777645214 | 27.78° C | 20% | 1022.2 hPa | - | - | - | - |
| 1777644314 | 28.33° C | 19% | 1022.3 hPa | - | - | - | - |
| 1777643414 | 29.44° C | 18% | 1022.4 hPa | - | - | - | - |
| 1777642514 | 28.89° C | 19% | 1022.7 hPa | - | - | - | - |
| 1777641614 | 28.89° C | 18% | 1023.1 hPa | - | - | - | - |
| 1777640714 | 28.89° C | 18% | 1023.3 hPa | - | - | - | - |
| 1777639814 | 28.89° C | 19% | 1023.6 hPa | - | - | - | - |
| 1777638914 | 28.89° C | 18% | 1023.7 hPa | - | - | - | - |
| 1777638013 | 30° C | 18% | 1024.1 hPa | - | - | - | - |
| 1777637113 | 29.44° C | 18% | 1024.2 hPa | - | - | - | - |
| 1777636213 | 28.89° C | 18% | 1024.4 hPa | - | - | - | - |
| 1777635313 | 28.33° C | 20% | 1024.4 hPa | - | - | - | - |
| 1777634413 | 28.89° C | 19% | 1024.7 hPa | - | - | - | - |
| 1777633513 | 27.78° C | 20% | 1024.9 hPa | - | - | - | - |
| 1777632613 | 26.67° C | 21% | 1025 hPa | - | - | - | - |
| 1777631712 | 25.56° C | 22% | 1025.2 hPa | - | - | - | - |
* Rain since midnight (hover to see other rain measurements)
** Current wind speed in m/s (hover to see current wind gust speed)